User: anonymous   Login
Location: Laterina
(43.5167°N, 11.7167°E)
Time: 11:35:48
(UTC+00:00)
Language:

Cosmos 1340 Rocket - Orbit

View from above orbital plane
View from above orbital plane
View from above satellite
View from above satellite

Ground track
Ground track

The orbit data is extracted from the following two-line orbital elements,

1 13068U 82013B   20337.82389736  .00001290  00000-0  82947-4 0  9999
2 13068  81.2048 218.0252 0022148  98.5570 261.8165 15.07521624113731
Epoch (UTC): 02 December 2020 19:46:24
Eccentricity: 0.0022148
inclination: 81.2048°
perigee height: 528 km
apogee height: 559 km
right ascension of ascending node: 218.0252°
argument of perigee: 98.5570°
revolutions per day: 15.07521624
mean anomaly at epoch: 261.8165°
orbit number at epoch: 11373

The dashed part of the orbit path shows where the satellite is in the earth's shadow,  

DLR